timestamp,wind_dir_avg,wind_spd_avg,wind_spd_max_dir,wind_spd_gust,battery_voltage,lat,long
2023-10-15 00:04:01+00:00,161.0,2.36,155.0,2.66,12.25,47.59359,-54.27349
2023-10-15 00:14:00+00:00,121.0,1.47,118.0,1.9,12.17,47.59359,-54.27349
2023-10-15 00:24:00+00:00,119.0,1.08,113.0,1.4,12.17,47.59359,-54.27349
2023-10-15 00:34:00+00:00,87.0,1.5,92.0,1.98,12.17,47.59359,-54.27349
2023-10-15 00:44:00+00:00,82.0,2.51,78.0,2.77,12.17,47.59359,-54.27349
2023-10-15 00:54:00+00:00,77.0,2.46,72.0,3.11,12.17,47.59359,-54.27349
2023-10-15 01:04:00+00:00,75.0,2.93,73.0,3.28,12.17,47.59359,-54.27349
2023-10-15 01:14:01+00:00,107.0,1.63,116.0,2.97,12.17,47.59359,-54.27349
2023-10-15 01:24:01+00:00,154.0,3.78,146.0,4.69,12.17,47.59359,-54.27349
2023-10-15 01:34:01+00:00,166.0,5.04,166.0,5.66,12.17,47.59359,-54.27349
2023-10-15 01:44:01+00:00,164.0,4.96,164.0,5.55,12.17,47.59359,-54.27349
2023-10-15 01:54:01+00:00,164.0,4.78,166.0,5.61,12.17,47.59359,-54.27349
2023-10-15 02:04:01+00:00,167.0,4.28,166.0,4.72,12.17,47.59359,-54.27349
2023-10-15 02:14:01+00:00,201.0,4.76,206.0,5.13,12.17,47.59359,-54.27349
2023-10-15 02:24:01+00:00,196.0,3.6,202.0,4.06,12.17,47.59359,-54.27349
2023-10-15 02:34:01+00:00,170.0,3.42,172.0,4.13,12.17,47.59359,-54.27349
2023-10-15 02:44:01+00:00,171.0,3.53,171.0,3.98,12.17,47.59359,-54.27349
2023-10-15 02:54:01+00:00,173.0,3.09,174.0,3.56,12.17,47.59359,-54.27349
2023-10-15 03:04:01+00:00,182.0,3.85,187.0,4.92,12.17,47.59359,-54.27349
2023-10-15 03:14:01+00:00,169.0,3.44,171.0,3.99,12.17,47.59359,-54.27349
2023-10-15 03:24:01+00:00,170.0,4.09,166.0,4.67,12.17,47.59359,-54.27349
2023-10-15 03:34:01+00:00,141.0,4.19,141.0,4.62,12.17,47.59359,-54.27349
2023-10-15 03:44:01+00:00,155.0,4.04,154.0,4.52,12.17,47.59359,-54.27349
2023-10-15 03:54:01+00:00,150.0,4.01,148.0,4.75,12.17,47.59359,-54.27349
2023-10-15 04:04:01+00:00,154.0,3.98,152.0,4.5,12.17,47.59359,-54.27349
2023-10-15 04:14:00+00:00,164.0,3.43,167.0,3.83,12.17,47.59359,-54.27349
2023-10-15 04:24:00+00:00,162.0,3.33,164.0,3.8,12.17,47.59359,-54.27349
2023-10-15 04:34:00+00:00,164.0,2.91,161.0,3.35,12.17,47.59359,-54.27349
2023-10-15 04:44:00+00:00,167.0,3.65,167.0,3.97,12.17,47.59359,-54.27349
2023-10-15 04:54:00+00:00,163.0,4.01,165.0,4.36,12.17,47.59359,-54.27349
2023-10-15 05:04:00+00:00,164.0,3.8,163.0,4.11,12.17,47.59359,-54.27349
2023-10-15 05:14:00+00:00,164.0,4.43,161.0,4.8,12.17,47.59359,-54.27349
2023-10-15 05:24:00+00:00,169.0,4.15,165.0,4.57,12.17,47.59359,-54.27349
2023-10-15 05:34:00+00:00,170.0,3.83,171.0,4.15,12.17,47.59359,-54.27349
2023-10-15 05:44:00+00:00,160.0,3.71,160.0,4.04,12.17,47.59359,-54.27349
2023-10-15 05:54:00+00:00,159.0,3.33,157.0,3.65,12.17,47.59359,-54.27349
2023-10-15 06:04:00+00:00,161.0,2.27,159.0,2.57,12.17,47.59359,-54.27349
2023-10-15 06:14:00+00:00,324.0,1.27,328.0,1.74,12.17,47.59359,-54.27349
2023-10-15 06:24:00+00:00,356.0,1.76,353.0,2.1,12.17,47.59359,-54.27349
2023-10-15 06:34:00+00:00,32.0,2.77,35.0,3.07,12.17,47.59359,-54.27349
2023-10-15 06:44:00+00:00,42.0,2.74,43.0,2.96,12.17,47.59359,-54.27349
2023-10-15 06:54:00+00:00,37.0,2.39,40.0,2.76,12.17,47.59359,-54.27349
2023-10-15 07:04:00+00:00,26.0,3.01,26.0,3.33,12.17,47.59359,-54.27349
2023-10-15 07:14:00+00:00,38.0,3.06,31.0,3.58,12.17,47.59359,-54.27349
2023-10-15 07:24:00+00:00,42.0,2.2,43.0,2.65,12.17,47.59359,-54.27349
2023-10-15 07:34:00+00:00,80.0,1.47,83.0,1.79,12.17,47.59359,-54.27349
2023-10-15 07:44:00+00:00,106.0,0.96,96.0,1.09,12.17,47.59359,-54.27349
2023-10-15 07:54:00+00:00,59.0,0.85,83.0,1.37,12.17,47.59359,-54.27349
2023-10-15 08:04:00+00:00,94.0,1.67,97.0,2.06,12.17,47.59359,-54.27349
2023-10-15 08:14:00+00:00,154.0,2.01,157.0,2.47,12.17,47.59359,-54.27349
2023-10-15 08:24:00+00:00,158.0,0.7,151.0,0.98,12.17,47.59359,-54.27349
2023-10-15 08:34:00+00:00,138.0,0.54,153.0,0.84,12.17,47.59359,-54.27349
2023-10-15 08:44:00+00:00,210.0,2.12,215.0,2.39,12.17,47.59359,-54.27349
2023-10-15 08:54:00+00:00,243.0,1.96,239.0,2.36,12.17,47.59359,-54.27349
2023-10-15 09:04:00+00:00,353.0,3.05,354.0,3.26,12.17,47.59359,-54.27349
2023-10-15 09:14:01+00:00,2.0,3.16,1.0,3.5,12.17,47.59359,-54.27349
2023-10-15 09:24:01+00:00,6.0,1.97,4.0,2.18,12.17,47.59359,-54.27349
2023-10-15 09:34:01+00:00,342.0,1.15,329.0,1.43,12.17,47.59359,-54.27349
2023-10-15 09:44:01+00:00,10.0,0.94,16.0,1.08,12.17,47.59359,-54.27349
2023-10-15 09:54:01+00:00,30.0,0.51,34.0,0.7,12.17,47.59359,-54.27349
2023-10-15 10:04:01+00:00,19.0,1.33,14.0,1.59,12.17,47.59359,-54.27349
2023-10-15 10:14:00+00:00,18.0,1.06,24.0,1.23,12.17,47.59359,-54.27349
2023-10-15 10:24:00+00:00,34.0,1.2,31.0,1.43,12.17,47.59359,-54.27349
2023-10-15 10:34:00+00:00,120.0,0.58,124.0,0.71,12.17,47.59359,-54.27349
2023-10-15 10:44:00+00:00,44.0,1.11,43.0,1.27,12.17,47.59359,-54.27349
2023-10-15 10:54:00+00:00,17.0,1.52,16.0,1.74,12.17,47.59359,-54.27349
2023-10-15 11:04:00+00:00,40.0,1.41,39.0,1.67,12.17,47.59359,-54.27349
2023-10-15 11:14:01+00:00,29.0,1.56,25.0,2.09,14.0,47.59359,-54.27349
2023-10-15 11:24:01+00:00,32.0,1.42,22.0,1.76,14.0,47.59359,-54.27349
2023-10-15 11:34:01+00:00,30.0,0.83,39.0,1.12,14.0,47.59359,-54.27349
2023-10-15 11:44:01+00:00,180.0,0.18,138.0,0.43,14.0,47.59359,-54.27349
2023-10-15 11:54:01+00:00,99.0,0.64,89.0,1.14,14.0,47.59359,-54.27349
2023-10-15 12:04:01+00:00,68.0,0.24,61.0,0.58,14.0,47.59359,-54.27349
2023-10-15 12:14:00+00:00,224.0,3.52,223.0,3.87,14.4,47.59359,-54.27349
2023-10-15 12:24:00+00:00,219.0,3.87,220.0,4.21,14.4,47.59359,-54.27349
2023-10-15 12:34:00+00:00,227.0,3.34,228.0,3.92,14.4,47.59359,-54.27349
2023-10-15 12:44:00+00:00,220.0,4.04,224.0,4.49,14.4,47.59359,-54.27349
2023-10-15 12:54:00+00:00,228.0,5.61,225.0,6.24,14.4,47.59359,-54.27349
2023-10-15 13:04:00+00:00,233.0,4.04,229.0,4.69,14.4,47.59359,-54.27349
2023-10-15 13:14:01+00:00,229.0,3.28,236.0,3.71,13.44,47.59359,-54.27349
2023-10-15 13:24:01+00:00,223.0,2.83,221.0,3.58,13.44,47.59359,-54.27349
2023-10-15 13:34:01+00:00,224.0,2.96,223.0,3.42,13.44,47.59359,-54.27349
2023-10-15 13:44:01+00:00,209.0,3.6,209.0,4.27,13.44,47.59359,-54.27349
2023-10-15 13:54:01+00:00,214.0,5.2,208.0,6.06,13.44,47.59359,-54.27349
2023-10-15 14:04:01+00:00,210.0,5.41,211.0,5.86,13.44,47.59359,-54.27349
2023-10-15 14:14:00+00:00,208.0,4.25,199.0,4.69,13.76,47.59359,-54.27349
2023-10-15 14:24:00+00:00,200.0,4.64,203.0,5.26,13.76,47.59359,-54.27349
2023-10-15 14:34:00+00:00,199.0,6.06,199.0,6.83,13.76,47.59359,-54.27349
2023-10-15 14:44:00+00:00,202.0,5.39,201.0,6.03,13.76,47.59359,-54.27349
2023-10-15 14:54:00+00:00,200.0,5.65,200.0,6.5,13.76,47.59359,-54.27349
2023-10-15 15:04:00+00:00,207.0,5.43,209.0,5.88,13.76,47.59359,-54.27349
2023-10-15 15:14:00+00:00,208.0,6.69,207.0,7.45,13.92,47.59359,-54.27349
2023-10-15 15:24:00+00:00,207.0,6.45,208.0,7.4,13.92,47.59359,-54.27349
2023-10-15 15:34:00+00:00,207.0,6.06,204.0,7.31,13.92,47.59359,-54.27349
2023-10-15 15:44:00+00:00,208.0,6.52,207.0,7.46,13.92,47.59359,-54.27349
2023-10-15 15:54:00+00:00,208.0,7.05,207.0,7.74,13.92,47.59359,-54.27349
2023-10-15 16:04:00+00:00,205.0,8.18,206.0,8.99,13.92,47.59359,-54.27349
2023-10-15 16:14:00+00:00,208.0,8.67,214.0,10.4,13.84,47.59359,-54.27349
2023-10-15 16:24:00+00:00,209.0,8.35,206.0,9.29,13.84,47.59359,-54.27349
2023-10-15 16:34:00+00:00,210.0,7.62,221.0,9.8,13.84,47.59359,-54.27349
2023-10-15 16:44:00+00:00,209.0,7.63,222.0,9.37,13.84,47.59359,-54.27349
2023-10-15 16:54:00+00:00,213.0,8.57,229.0,12.08,13.84,47.59359,-54.27349
2023-10-15 17:04:00+00:00,223.0,10.77,227.0,12.76,13.84,47.59359,-54.27349
2023-10-15 17:14:00+00:00,226.0,10.74,229.0,12.29,14.08,47.59359,-54.27349
2023-10-15 17:24:00+00:00,227.0,11.29,230.0,12.93,14.08,47.59359,-54.27349
2023-10-15 17:34:00+00:00,222.0,8.27,232.0,11.89,14.08,47.59359,-54.27349
2023-10-15 17:44:00+00:00,216.0,6.77,227.0,8.84,14.08,47.59359,-54.27349
2023-10-15 17:54:00+00:00,216.0,7.53,230.0,9.58,14.08,47.59359,-54.27349
2023-10-15 18:04:00+00:00,211.0,6.41,212.0,7.19,14.08,47.59359,-54.27349
2023-10-15 18:14:01+00:00,211.0,6.17,212.0,6.95,14.16,47.59359,-54.27349
2023-10-15 18:24:01+00:00,210.0,8.18,223.0,9.85,14.16,47.59359,-54.27349
2023-10-15 18:34:01+00:00,212.0,8.44,226.0,11.04,14.16,47.59359,-54.27349
2023-10-15 18:44:01+00:00,218.0,7.83,232.0,11.24,14.16,47.59359,-54.27349
2023-10-15 18:54:01+00:00,211.0,7.94,221.0,9.41,14.16,47.59359,-54.27349
2023-10-15 19:04:01+00:00,215.0,7.7,228.0,10.17,14.16,47.59359,-54.27349
2023-10-15 19:14:00+00:00,213.0,8.44,222.0,10.33,13.92,47.59359,-54.27349
2023-10-15 19:24:00+00:00,213.0,6.96,217.0,7.92,13.92,47.59359,-54.27349
2023-10-15 19:34:00+00:00,215.0,6.75,227.0,8.16,13.92,47.59359,-54.27349
2023-10-15 19:44:00+00:00,216.0,6.56,220.0,7.29,13.92,47.59359,-54.27349
2023-10-15 19:54:00+00:00,216.0,6.94,226.0,8.69,13.92,47.59359,-54.27349
2023-10-15 20:04:00+00:00,215.0,6.43,209.0,7.24,13.92,47.59359,-54.27349
2023-10-15 20:14:00+00:00,217.0,6.72,215.0,7.37,13.53,47.59359,-54.27349
2023-10-15 20:24:00+00:00,211.0,6.51,210.0,7.51,13.53,47.59359,-54.27349
2023-10-15 20:34:00+00:00,220.0,4.9,226.0,5.71,13.53,47.59359,-54.27349
2023-10-15 20:44:00+00:00,213.0,6.0,214.0,6.76,13.53,47.59359,-54.27349
2023-10-15 20:54:00+00:00,216.0,5.56,213.0,6.71,13.53,47.59359,-54.27349
2023-10-15 21:04:00+00:00,211.0,5.85,215.0,6.37,13.53,47.59359,-54.27349
2023-10-15 21:14:00+00:00,213.0,4.29,214.0,4.55,12.81,47.59359,-54.27349
2023-10-15 21:24:00+00:00,224.0,3.6,224.0,3.93,12.81,47.59359,-54.27349
2023-10-15 21:34:00+00:00,215.0,3.83,217.0,4.18,12.81,47.59359,-54.27349
2023-10-15 21:44:00+00:00,209.0,4.7,214.0,5.3,12.81,47.59359,-54.27349
2023-10-15 21:54:00+00:00,206.0,4.76,210.0,5.36,12.81,47.59359,-54.27349
2023-10-15 22:04:00+00:00,213.0,4.55,211.0,5.13,12.81,47.59359,-54.27349
2023-10-15 22:14:01+00:00,219.0,4.47,216.0,4.91,12.49,47.59359,-54.27349
2023-10-15 22:24:01+00:00,216.0,4.25,218.0,4.86,12.49,47.59359,-54.27349
2023-10-15 22:34:01+00:00,222.0,2.94,222.0,3.45,12.49,47.59359,-54.27349
2023-10-15 22:44:01+00:00,225.0,2.8,223.0,3.14,12.49,47.59359,-54.27349
2023-10-15 22:54:01+00:00,216.0,2.51,211.0,2.83,12.49,47.59359,-54.27349
2023-10-15 23:04:01+00:00,214.0,3.03,215.0,3.65,12.49,47.59359,-54.27349
2023-10-15 23:14:00+00:00,218.0,2.92,217.0,3.39,12.49,47.59359,-54.27349
2023-10-15 23:24:00+00:00,201.0,2.3,203.0,2.53,12.49,47.59359,-54.27349
2023-10-15 23:34:00+00:00,204.0,1.75,204.0,1.92,12.49,47.59359,-54.27349
2023-10-15 23:44:00+00:00,173.0,1.01,186.0,1.16,12.49,47.59359,-54.27349
2023-10-15 23:54:00+00:00,125.0,1.55,127.0,1.74,12.49,47.59359,-54.27349
